TimeCDT,TemperatureF,Dew PointF,Humidity,Sea Level PressureIn,VisibilityMPH,Wind Direction,Wind SpeedMPH,Gust SpeedMPH,PrecipitationIn,Events,Conditions,WindDirDegrees,DateUTC
12:55 AM,51.1,41.0,68,30.22,10.0,SSE,12.7,-,N/A,,Overcast,160,2013-04-22 05:55:00
1:55 AM,50.0,41.0,71,30.20,10.0,SSE,12.7,-,N/A,,Overcast,160,2013-04-22 06:55:00
2:55 AM,48.9,41.0,74,30.19,10.0,SSE,12.7,-,N/A,,Mostly Cloudy,160,2013-04-22 07:55:00
3:55 AM,46.0,39.9,79,30.18,10.0,SSE,10.4,-,N/A,,Scattered Clouds,160,2013-04-22 08:55:00
4:55 AM,45.0,39.9,82,30.17,10.0,SSE,9.2,-,N/A,,Partly Cloudy,160,2013-04-22 09:55:00
5:55 AM,43.0,39.0,86,30.17,10.0,SSE,9.2,-,N/A,,Clear,160,2013-04-22 10:55:00
6:55 AM,44.1,39.0,82,30.18,10.0,SSE,9.2,-,N/A,,Partly Cloudy,150,2013-04-22 11:55:00
7:55 AM,48.0,41.0,77,30.18,10.0,SSE,5.8,-,N/A,,Mostly Cloudy,160,2013-04-22 12:55:00
8:55 AM,55.9,39.9,55,30.16,10.0,South,11.5,-,N/A,,Clear,180,2013-04-22 13:55:00
9:55 AM,60.1,41.0,49,30.15,10.0,South,12.7,20.7,N/A,,Clear,180,2013-04-22 14:55:00
10:55 AM,62.1,39.9,44,30.16,10.0,SSW,15.0,19.6,N/A,,Overcast,210,2013-04-22 15:55:00
11:55 AM,63.0,42.1,46,30.14,10.0,SW,11.5,-,N/A,,Overcast,220,2013-04-22 16:55:00
12:55 PM,64.9,43.0,45,30.10,10.0,SSW,9.2,-,N/A,,Mostly Cloudy,200,2013-04-22 17:55:00
1:55 PM,68.0,43.0,40,30.05,10.0,SSW,8.1,-,N/A,,Mostly Cloudy,200,2013-04-22 18:55:00
2:55 PM,69.1,44.1,40,30.02,10.0,SE,16.1,23.0,N/A,,Partly Cloudy,130,2013-04-22 19:55:00
3:55 PM,68.0,42.1,39,30.00,10.0,SSE,13.8,24.2,N/A,,Clear,150,2013-04-22 20:55:00
4:55 PM,64.9,43.0,45,29.99,10.0,SSE,13.8,-,N/A,,Mostly Cloudy,150,2013-04-22 21:55:00
5:55 PM,63.0,43.0,48,29.99,10.0,SE,9.2,-,N/A,,Partly Cloudy,130,2013-04-22 22:55:00
6:55 PM,61.0,45.0,56,29.97,10.0,SE,5.8,-,N/A,,Mostly Cloudy,130,2013-04-22 23:55:00
7:55 PM,62.1,39.0,43,30.01,10.0,SW,9.2,25.3,0.00,Rain,Light Rain,230,2013-04-23 00:55:00
8:55 PM,54.0,44.1,69,30.04,10.0,WNW,4.6,-,0.01,Rain,Light Rain,290,2013-04-23 01:55:00
9:55 PM,53.1,45.0,74,30.04,10.0,NW,3.5,-,0.00,,Overcast,320,2013-04-23 02:55:00
10:55 PM,52.0,46.0,80,30.02,10.0,North,3.5,-,N/A,,Overcast,350,2013-04-23 03:55:00
11:55 PM,51.1,46.9,86,30.00,10.0,North,5.8,-,N/A,,Overcast,360,2013-04-23 04:55:00